Location: Casteau
(50.5142°N, 4.0161°E)
Time: 03:17:16
(UTC+00:00)

Cosmos 1975 Rocket - Pass Details

Date: 18 September 2020
Orbit: 603 x 634 km, 82.5° (Epoch: 24 October)

Event Time Altitude Azimuth Distance (km) Brightness Sun altitude
Rises 19:04:38 0° 345° (NNW) 2,885 7.0 -12.4°
Reaches altitude 10° 19:06:54 10° 341° (NNW) 1,971 6.2 -12.8°
Maximum altitude 19:11:07 51° 266° (W) 768 3.9 -13.4°
Drops below altitude 10° 19:15:17 10° 190° (S) 1,946 5.5 -14.0°
Sets 19:17:31 0° 186° (S) 2,844 6.3 -14.4°
